Location: Red Bud (historical)
(37.7759°N, 88.4053°W)
Time: 23:51:50
(UTC+00:00)

Cosmos 1892 - Pass Details

Date: 29 October 2020
Orbit: 504 x 523 km, 82.5° (Epoch: 28 November)

Event Time Altitude Azimuth Distance (km) Brightness Sun altitude
Rises 23:16:35 0° 10° (N) 2,662 6.1 -4.4°
Reaches altitude 10° 23:19:17 10° 30° (NNE) 1,769 5.0 -5.0°
Maximum altitude 23:22:00 18° 74° (ENE) 1,332 4.1 -5.5°
Drops below altitude 10° 23:24:42 10° 119° (ESE) 1,759 5.0 -6.0°
Sets 23:27:22 0° 139° (SE) 2,640 6.0 -6.5°
